Weather Roundup
Issued by NWS

Home | Current Version | Previous Version | Graphics & Text | Print | Product List | Glossary Off
Versions: 1 2 3 4 5 6 7 8 9 10 11 12 13 14 15 16 17 18 19 20 21 22 23 24 25 26 27 28 29 30 31 32 33 34 35 36 37 38 39 40 41 42 43 44 45 46 47 48 49 50

000
NZUS93 KARX 021259
HRRWXR

CURRENT HOURLY OBSERVATIONS ACROSS
MUCH OF THE UPPER MISSISSIPPI VALLEY
NATIONAL WEATHER SERVICE LA CROSSE WI
800 AM CDT MON MAY 02 2016


...SOUTHEAST MINNESOTA...


CITY           SKY/WX    TMP DP  RH WIND       PRES   REMARKS
ROCHESTER      SUNNY     46  42  86 S6        30.12R
ROCHESTER/MAYO FAIR      46  40  80 CALM      30.11F
WINONA         SUNNY     43  43 100 CALM      30.13S
AUSTIN         MOSUNNY   45  43  93 CALM      30.10F
ALBERT LEA     SUNNY     43  43 100 CALM      30.10F
DODGE CENTER   SUNNY     46  43  87 CALM      30.10S
PRESTON        MOSUNNY   46  39  78 SE5       30.12S
OWATONNA       SUNNY     45  39  81 CALM      30.11S
FARIBAULT      SUNNY     45  39  81 CALM      30.11S
$$

...ELSEWHERE IN MINNESOTA...


CITY           SKY/WX    TMP DP  RH WIND       PRES   REMARKS
MINNEAPOLIS    SUNNY     48  37  65 CALM      30.12S
INTNL FALLS    SUNNY     43  34  70 SE3       30.10S
DULUTH         MOSUNNY   43  35  73 E5        30.12S
RED WING       SUNNY     46  39  76 CALM      30.10F
REDWOOD FALLS  MOSUNNY   48  37  65 CALM      30.12R
MANKATO        SUNNY     45  37  76 NW5       30.12S
WORTHINGTON    SUNNY     45  39  79 W3        30.13S
FAIRMONT       SUNNY     46  37  71 NW6       30.11S
$$

...SOUTHWEST WISCONSIN...


CITY           SKY/WX    TMP DP  RH WIND       PRES   REMARKS
LA CROSSE      SUNNY     44  38  79 SE3       30.13R
PRAIRIE DU CHI FOG       40  39  95 CALM      30.12S VSB<1/4
BOSCOBEL       FOG       38  37  97 CALM      30.13R VSB 1/2
LONE ROCK      NOT AVBL
PLATTEVILLE    SUNNY     46  43  90 N8        30.10S
FORT MC COY    SUNNY     36  34  92 CALM      30.13F
MAUSTON-NEW LI NOT AVBL
VIROQUA        FAIR      44  40  87 CALM      30.11S
WIS DELLS      SUNNY     40  38  95 NW3       30.11S
$$

...ELSEWHERE IN WISCONSIN...


CITY           SKY/WX    TMP DP  RH WIND       PRES   REMARKS
MILWAUKEE      MOSUNNY   47  38  71 N12       30.08R
MADISON        SUNNY     46  40  79 N7        30.09S
GREEN BAY      SUNNY     47  36  65 N7        30.11F
EAU CLAIRE     NOT AVBL
BLACK RVR FLS  FAIR      37  37 100 CALM      30.13S
MEDFORD        SUNNY     42  37  82 CALM      30.12R
WAUSAU         SUNNY     46  35  65 CALM      30.11S
WIS RAPIDS     SUNNY     48  34  58 NE5       30.13F
MARSHFIELD     SUNNY     49  37  63 NE5       30.11S
RICE LAKE      SUNNY     43  36  76 CALM      30.14R
$$

...NORTHEAST IOWA...


CITY           SKY/WX    TMP DP  RH WIND       PRES   REMARKS
WATERLOO       MOSUNNY   46  43  89 NE3       30.12R
DUBUQUE        CLOUDY    46  42  86 N9        30.10R
DECORAH        FOG       41  41 100 CALM      30.11R VSB 3/4
MASON CITY     CLOUDY    40  38  93 NE3       30.12S
CHARLES CITY   MOSUNNY   46  46 100 NE5       30.12S
OELWEIN        SUNNY     43  43 100 NE5       30.12S
$$

...ELSEWHERE IN IOWA...


CITY           SKY/WX    TMP DP  RH WIND       PRES   REMARKS
DES MOINES     MOSUNNY   50  44  80 NE5       30.13R
IOWA CITY      CLOUDY    47  44  90 N6        30.11S
FORT DODGE     PTSUNNY   43  39  87 CALM      30.12S
MARSHALLTOWN   CLOUDY    42  41  96 CALM      30.11S FOG
CEDAR RAPIDS   PTSUNNY   47  45  93 N6        30.09S
$$

...NORTHERN ILLINOIS...


CITY           SKY/WX    TMP DP  RH WIND       PRES   REMARKS
CHICAGO-OHARE  MOSUNNY   48  39  71 NE10      30.04S
CHICAGO-MIDWAY MOSUNNY   49  37  63 NE18      30.04S
MOLINE         CLOUDY    50  45  83 N3        30.07S
ROCKFORD       PTSUNNY   50  43  77 N13       30.09S
PEORIA         CLOUDY    48  43  82 N9        30.05R
$$

NOTE: "FAIR" INDICATES FEW OR NO CLOUDS BELOW 12,000 FEET WITH NO
SIGNIFICANT WEATHER AND/OR OBSTRUCTIONS TO VISIBILITY. WIND
SPEEDS ARE IN MILES-PER-HOUR.




USA.gov is the U.S. government's official web portal to all federal, state and local government web resources and services.